Das Wetter in  D-61279 Heinzenberg / Taunus





Wetter Minimum- & Maximum-Werte im Januar 2017

Standort: Heinzenberg / Taunus - Höhe 297 m         8 24' 1" Ost 50 21' 51" Nord
(   3-stündige Aktualisierung    letzte Aktualisierung um 19:04 am 31.01.2017  )


Messgrösse

Minimum

Maximum

Durchschnitt

Temperatur West /
Luftfeuchte West
Anklicken für Monats-Diagramm

-13,6 C

08:34
23.01.2017

53 %

15:06
20.01.2017

6,7 C

15:16
20.01.2017

93 %

07:15
04.01.2017

Temp

-2,7 C

Feuchte

83 %

Temperatur Ost /
Luftfeuchte Ost
Anklicken für Monats-Diagramm

-13,4 C

08:09
23.01.2017

--

--
--

6,4 C

16:01
20.01.2017

--

--
--

-2,5 C

--

Luftdruck Anklicken für Monats-Diagramm

982,4 hPa

01:54
13.01.2017

1043,9 hPa

09:07
06.01.2017

1023,0 hPa

Taupunkt

-16,3 C

08:34
23.01.2017

3,7 C

19:36
30.01.2017

-5,2 C

Windchill
( gefühlte Temperatur )

-18,3 C

05:29
13.01.2017

6,7 C

15:16
20.01.2017

-5,2 C

Windgeschwindigkeit /
Windrichtung
Anklicken für Monats-Diagramm

---

94,1 km/h / W

03:34
13.01.2017

6,6 km/h
W

Helligkeit /
Sonnenschein
Anklicken für Monats-Diagramm
Anklicken für Monats-Diagramm

Sonnenschein:

92:05 Stunden

Max: 7:35 Std am
22.01.2017

71,4 klux

12:32
16.01.2017

15,1 klux

Solarstrahlung Anklicken für Monats-Diagramm

---

488 W/m

12:32
16.01.2017

117 W/m

Regenmenge
    Januar 2017
Anklicken für Monats-Diagramm

Insgesamt 20,8 l/m

in 77:01 Stunden
an 16 Tagen

5,0 l/m

10:11
30.01.2017

Gesamtmenge

20,8 l/m

Regen-Tage
    Januar 2017
Anklicken für Monats-Diagramm

>   0 mm/Tag

>   2 mm/Tag

>   5 mm/Tag

> 10 mm/Tag

> 20 mm/Tag

16 Tage     
5 Tage     
  1 Tag     
0 Tage     
0 Tage     

Eisige Tage Januar 2017 / 2016

Tmin ≤ -10C     

6 Tage

/

3 Tage

Eistage Januar 2017 / 2016

Tmax <     0C     

6 Tage

/

  1 Tag

Frosttage Januar 2017 / 2016

Tmin ≤     0C     

29 Tage

/

13 Tage

Kalte Tage Januar 2017 / 2016

Tmax <   10C     

31 Tage

/

26 Tage

Warme Tage Januar 2017 / 2016

Tmax ≥   20C     

0 Tage

/

0 Tage

Sommertage Januar 2017 / 2016

Tmax ≥   25C     

0 Tage

/

0 Tage

Heisse Tage Januar 2017 / 2016

Tmax ≥   30C     

0 Tage

/

0 Tage


Monatsdiagramm Januar 2017

Die Kurven zeigen den Durchschnittswert des jeweiligen Tages an


Wetter-Monatsübersicht Januar 2017
Datum
  Temperatur
   Luftdruck
   Wind
  Regen
   Luftfeuchte
   Helligkeit

Sonnen-
schein


Temp.

Min.
Temp.

Max.
Temp.


Luftdruck

Min.
Luftdruck

Max.
Luftdruck

-Geschw.
Haupt-Richtg.

Max.
Wind

Menge /
Dauer


Feuchte

Min.
Feuchte

Max.
Feuchte


Helligkeit

Max.
Helligkeit

1.
Januar
-5,6 C-8,1 C
05:28
-3,2 C
20:33
1023,2 hPa1019,6 hPa
15:48
1029,6 hPa
00:03
2,6 km/h
W-SW
17,5 km/h
22:33  
---
88 %86 %
00:03
89 %
09:48
8,9 klux27,7 klux
12:38
30 Min 
2.
Januar
-1,1 C-3,4 C
00:03
0,3 C
13:23
1022,1 hPa1019,5 hPa
05:13
1025,5 hPa
22:03
5,7 km/h
W-NW
19,9 km/h
14:13  
0,5 l/m
3:05 Stunden
89 %87 %
00:03
91 %
13:13
6,6 klux22,9 klux
13:18
25 Min 
3.
Januar
0,4 C-0,6 C
01:09
1,3 C
12:29
1024,3 hPa1019,1 hPa
23:50
1026,5 hPa
01:39
17,9 km/h
W
41,1 km/h
18:29  
---
10 Minuten
87 %81 %
15:39
91 %
02:34
7,9 klux31,9 klux
11:24
30 Min 
4.
Januar
1,2 C-0,2 C
22:56
3,0 C
12:35
1014,6 hPa1011,8 hPa
08:20
1019,2 hPa
23:21
24,7 km/h
W
46,7 km/h
02:50  
4,0 l/m
14:21 Stunden
90 %84 %
15:50
93 %
07:15
9,5 klux55,0 klux
12:25
1:10 Std 
5.
Januar
-2,7 C-9,0 C
23:52
1,2 C
15:01
1028,8 hPa1019,2 hPa
00:01
1040,2 hPa
23:52
4,5 km/h
NW
19,8 km/h
02:56  
---
82 %69 %
16:01
90 %
00:01
22,8 klux49,4 klux
12:21
5:35 Std 
6.
Januar
-9,7 C-13,0 C
08:42
-2,0 C
15:17
1041,3 hPa1040,2 hPa
00:02
1043,9 hPa
09:07
0,7 km/h
SO
8,9 km/h
01:27  
---
80 %71 %
15:37
85 %
11:42
22,8 klux45,8 klux
13:02
6:30 Std 
7.
Januar
-7,5 C-13,4 C
03:53
-3,2 C
23:39
1034,5 hPa1029,0 hPa
22:49
1040,7 hPa
00:03
4,1 km/h
W-SW
16,4 km/h
15:08  
---
1:00 Stunden
82 %68 %
13:48
88 %
21:53
7,2 klux24,9 klux
11:48
10 Min 
8.
Januar
-0,8 C-3,3 C
00:04
0,7 C
13:54
1029,9 hPa1027,5 hPa
20:39
1031,6 hPa
20:09
2,7 km/h
NW
17,5 km/h
01:49  
---
2:45 Stunden
91 %88 %
00:04
92 %
09:59
5,7 klux14,0 klux
12:44
--- 
9.
Januar
0,2 C-0,8 C
06:15
1,6 C
14:30
1023,5 hPa1013,9 hPa
23:46
1028,6 hPa
01:50
3,5 km/h
SW
24,4 km/h
20:00  
---
25 Minuten
89 %84 %
15:40
92 %
00:00
6,2 klux14,3 klux
11:15
--- 
10.
Januar
-0,4 C-1,4 C
17:21
0,8 C
00:26
1010,3 hPa1007,8 hPa
11:21
1013,9 hPa
00:01
3,4 km/h
S
30,0 km/h
02:16  
4,6 l/m
10:05 Stunden
87 %84 %
00:56
89 %
09:46
6,4 klux19,0 klux
14:36
15 Min 
11.
Januar
1,3 C-1,3 C
00:02
3,9 C
18:47
1007,8 hPa1002,2 hPa
16:42
1013,2 hPa
00:02
18,4 km/h
W-SW
55,5 km/h
18:47  
2,4 l/m
6:30 Stunden
90 %80 %
23:48
93 %
15:27
6,0 klux26,7 klux
10:27
10 Min 
12.
Januar
3,0 C1,7 C
20:43
4,0 C
15:18
1005,3 hPa986,6 hPa
23:54
1010,6 hPa
08:53
20,2 km/h
W
35,0 km/h
00:33  
3,8 l/m
4:10 Stunden
80 %76 %
14:58
87 %
21:13
6,9 klux27,6 klux
11:03
15 Min 
13.
Januar
0,1 C-2,0 C
20:24
4,4 C
01:24
995,6 hPa982,4 hPa
01:54
1002,9 hPa
20:24
24,9 km/h
W
94,1 km/h
03:34  
0,5 l/m
10:15 Stunden
89 %76 %
02:49
93 %
08:34
6,3 klux14,2 klux
14:09
5 Min 
14.
Januar
0,1 C-1,2 C
21:45
1,0 C
13:45
1008,7 hPa1001,6 hPa
01:10
1014,1 hPa
23:26
21,5 km/h
W-NW
39,2 km/h
05:35  
0,2 l/m
8:15 Stunden
88 %82 %
17:30
92 %
01:30
9,5 klux39,7 klux
13:40
35 Min 
15.
Januar
-1,5 C-6,1 C
23:57
1,2 C
14:01
1018,1 hPa1014,1 hPa
01:16
1022,1 hPa
23:57
9,2 km/h
W
24,1 km/h
12:36  
---
2:25 Stunden
87 %80 %
14:01
89 %
00:01
15,3 klux64,0 klux
13:56
2:45 Std 
16.
Januar
-5,1 C-8,9 C
22:28
0,7 C
16:02
1025,3 hPa1022,1 hPa
00:02
1030,8 hPa
22:28
0,2 km/h
NO
4,5 km/h
14:57  
---
1:40 Stunden
85 %73 %
16:16
90 %
11:12
24,3 klux71,4 klux
12:32
5:45 Std 
17.
Januar
-4,2 C-9,0 C
23:59
2,1 C
15:03
1034,1 hPa1030,4 hPa
00:18
1038,1 hPa
23:49
0,4 km/h
NO
12,1 km/h
13:58  
---
79 %64 %
15:48
86 %
00:03
24,8 klux65,3 klux
13:33
6:20 Std 
18.
Januar
-6,2 C-9,3 C
23:55
1,2 C
15:29
1037,3 hPa1035,6 hPa
15:29
1039,1 hPa
08:59
0,5 km/h
O-NO
16,8 km/h
13:39  
---
80 %66 %
15:34
86 %
10:54
26,0 klux52,2 klux
13:49
6:25 Std 
19.
Januar
-7,6 C-12,7 C
08:05
2,7 C
15:20
1036,4 hPa1033,3 hPa
15:30
1038,3 hPa
10:25
0,6 km/h
SO
9,3 km/h
20:20  
---
78 %61 %
15:55
85 %
11:30
28,0 klux50,4 klux
12:30
7:25 Std 
20.
Januar
-6,4 C-12,7 C
08:06
6,7 C
15:16
1033,7 hPa1030,7 hPa
15:16
1036,3 hPa
00:26
2,8 km/h
SO
10,4 km/h
09:11  
---
74 %53 %
15:06
83 %
09:41
29,5 klux53,8 klux
12:51
7:25 Std 
21.
Januar
-4,9 C-9,5 C
08:02
6,0 C
15:17
1029,5 hPa1026,7 hPa
15:17
1031,9 hPa
04:27
1,5 km/h
SO
20,3 km/h
13:02  
---
74 %53 %
15:07
85 %
10:07
28,3 klux50,5 klux
12:12
7:25 Std 
22.
Januar
-7,0 C-12,3 C
08:58
3,7 C
15:23
1026,6 hPa1022,9 hPa
15:23
1028,8 hPa
02:33
0,2 km/h
SO
6,3 km/h
08:53  
---
74 %59 %
15:33
82 %
10:08
25,6 klux47,2 klux
12:43
7:35 Std 
23.
Januar
-8,9 C-13,6 C
08:34
-5,0 C
13:24
1026,9 hPa1026,1 hPa
13:24
1028,3 hPa
09:39
1,8 km/h
W
13,4 km/h
15:44  
---
82 %78 %
00:04
85 %
14:34
11,9 klux20,7 klux
12:54
1:15 Std 
24.
Januar
-3,5 C-5,5 C
00:00
-1,9 C
15:10
1028,2 hPa1026,1 hPa
06:40
1031,0 hPa
23:46
0,3 km/h
O-NO
16,5 km/h
23:41  
---
86 %82 %
20:50
88 %
05:30
4,3 klux9,4 klux
12:00
--- 
25.
Januar
-2,7 C-3,7 C
03:11
-1,8 C
12:51
1030,3 hPa1028,8 hPa
22:52
1032,1 hPa
10:41
5,2 km/h
O-SO
25,1 km/h
23:47  
---
77 %73 %
15:31
83 %
00:01
8,2 klux20,3 klux
12:31
--- 
26.
Januar
-1,7 C-5,8 C
23:08
4,3 C
15:12
1025,8 hPa1022,8 hPa
15:17
1029,9 hPa
00:02
6,2 km/h
O-SO
28,7 km/h
06:52  
---
71 %59 %
15:02
78 %
23:33
26,7 klux50,2 klux
13:07
6:30 Std 
27.
Januar
-3,5 C-8,2 C
07:58
4,5 C
14:48
1021,9 hPa1020,7 hPa
14:48
1023,9 hPa
11:13
1,1 km/h
SO
13,1 km/h
15:13  
---
74 %61 %
14:23
82 %
09:18
22,0 klux62,1 klux
13:43
6:05 Std 
28.
Januar
-3,3 C-9,1 C
07:59
4,0 C
14:04
1020,3 hPa1017,7 hPa
15:19
1022,2 hPa
00:59
0,6 km/h
SO
10,5 km/h
16:44  
---
75 %63 %
13:54
83 %
08:44
22,4 klux58,8 klux
12:39
5:05 Std 
29.
Januar
0,9 C-3,5 C
02:00
6,4 C
15:35
1021,1 hPa1019,5 hPa
14:45
1022,5 hPa
07:55
2,4 km/h
W-SW
32,5 km/h
13:50  
---
59 Minuten
80 %74 %
15:20
85 %
22:51
26,2 klux64,9 klux
13:00
5:55 Std 
30.
Januar
3,2 C-1,4 C
01:16
4,9 C
19:36
1013,2 hPa1010,3 hPa
19:36
1020,3 hPa
00:01
10,4 km/h
W-SW
30,1 km/h
14:06  
5,0 l/m
10:36 Stunden
89 %83 %
05:21
92 %
18:46
5,4 klux12,7 klux
13:41
--- 
31.
Januar
1,8 C0,7 C
08:22
3,9 C
00:02
1015,5 hPa1011,4 hPa
00:02
1019,1 hPa
21:42
5,2 km/h
NW
27,6 km/h
02:57  
---
20 Minuten
88 %85 %
23:58
92 %
00:02
6,1 klux13,1 klux
13:27
--- 



Januar
2017

Temperatur

  

Luftdruck

  

Wind

  

Regen

  

Luftfeuchte

  

Helligkeit

Sonnen-
schein

Min

Max

Min

Max

Max

Max

Min

Max

Max

Max

-2,7 C

-13,6 C

08:34 Uhr
23.01.2017

6,7 C

15:16 Uhr
20.01.2017

1023,0 hPa

982,4 hPa

01:54 Uhr
13.01.2017

1043,9 hPa

09:07 Uhr
06.01.2017

6,6 km/h

W

94,1 km/h

03:34 Uhr
13.01.2017

5,0 l/m

10:36 Stunden
30.01.2017

83 %

53 %

15:06 Uhr
20.01.2017

93 %

07:15 Uhr
04.01.2017

15,1 klux

71,4 klux

12:32 Uhr
16.01.2017

7:35 Std

am
22.01.2017

Gesamt

Gesamt

20,8 l/m

16 Tage
77:01 h

92:05 Std


Wetter-Diagramme Januar 2017     Heinzenberg / Taunus   
TemperaturLuftfeuchte
SolarstrahlungLuftdruck
HelligkeitSonnenschein
RegenmengeRegendauer
Wind-GeschwindigkeitWind-Richtung